This demonstration page uses our WeatherBlox Daily Observations layout. Learn more.

Left ArrowRight Arrow

34.74481, -87.66753

Hourly Observations for December 8, 2019

Temp ( °F °C ) Dew Point ( °F °C ) Humidity (%) Winds ( mph kmh ) Pressure ( in mb ) Visibility ( mi km ) Precip ( " mm )
12:53 am 00:53 Cloudy 44 6.7 42 5.6 93 93 Calm 30.21 1023 8 13 0.00 0.00
1:53 am 01:53 Mostly Cloudy 44 6.7 42 5.6 93 93 ESE 5 7 30.19 1022 8 13 0.00 0.00
2:53 am 02:53 Partly Cloudy 45 7.2 42 5.6 90 90 Calm 30.18 1022 9 14 0.00 0.00
3:56 am 03:56 Mostly Cloudy 44 6.7 43 6.1 96 96 Calm 30.17 1022 7 11 0.00 0.00
4:53 am 04:53 Cloudy 46 7.8 36 2.2 68 68 E 3 6 30.19 1022 8 13 0.00 0.00
5:53 am 05:53 Cloudy 47 8.3 44 6.7 90 90 ESE 5 7 30.19 1022 9 14 0.00 0.00
6:53 am 06:53 Cloudy 47 8.3 44 6.7 90 90 ESE 3 6 30.19 1023 9 14 0.00 0.00
7:53 am 07:53 Cloudy 50 10 46 7.8 86 86 SE 3 6 30.19 1023 10 16 0.00 0.00
8:53 am 08:53 Mostly Cloudy 56 13.3 47 8.3 72 72 SSE 10 17 30.20 1023 10 16 0.00 0.00
9:53 am 09:53 Cloudy 58 14.4 46 7.8 65 65 SSE 13 20 30.19 1022 10 16 0.00 0.00
10:53 am 10:53 Cloudy 61 16.1 45 7.2 56 56 S 12 19 30.16 1021 10 16 0.00 0.00
11:53 am 11:53 Cloudy 63 17.2 46 7.8 54 54 S 18 30 30.12 1020 10 16 0.00 0.00
12:53 pm 12:53 Cloudy 64 17.8 47 8.3 54 54 S 9 15 30.09 1019 10 16 0.00 0.00
1:53 pm 13:53 Cloudy 64 17.8 47 8.3 54 54 S 9 15 30.07 1018 10 16 0.00 0.00
2:53 pm 14:53 Mostly Cloudy 64 17.8 48 8.9 56 56 S 10 17 30.05 1018 10 16 0.00 0.00
3:53 pm 15:53 Cloudy 63 17.2 48 8.9 58 58 SSE 12 19 30.03 1017 10 16 0.00 0.00
4:53 pm 16:53 Cloudy 62 16.7 48 8.9 60 60 SSE 12 19 30.03 1017 10 16 0.00 0.00
5:53 pm 17:53 Mostly Cloudy 60 15.6 47 8.3 62 62 SSE 8 13 30.03 1017 10 16 0.00 0.00
6:53 pm 18:53 Mostly Cloudy 59 15 48 8.9 67 67 SSE 9 15 30.03 1017 10 16 0.00 0.00
7:53 pm 19:53 Partly Cloudy 59 15 49 9.4 69 69 SSE 9 15 30.01 1016 10 16 0.00 0.00
8:53 pm 20:53 Partly Cloudy 60 15.6 50 10 70 70 SSE 14 22 29.99 1016 10 16 0.00 0.00
9:18 pm 21:18 Cloudy 60 15.6 50 10 70 70 SSE 14 22 30.00 1016 10 16 0.00 0.00
9:53 pm 21:53 Cloudy 61 16.1 50 10 67 67 SSE 14 22 29.99 1016 10 16 0.00 0.00
10:53 pm 22:53 Cloudy 61 16.1 51 10.6 70 70 SSE 13 20 29.99 1016 10 16 0.00 0.00
11:53 pm 23:53 Cloudy 60 15.6 52 11.1 75 75 SSE 12 19 29.97 1015 10 16 0.00 0.00

Powered by AerisWeather